When you browse on this site, cookies collect data to enhance your experience and personalize the content and advertising you see.
Visit our Privacy Policy to learn more. By continuing to use the site, you agree to this use of cookies and data.
  • In Schweiz
  • Länderverzeichnis
  • Für 7 Tage
  • Wassertemperatur
  • Wetterkarte
  • Widgets
  • user-avatar
    Anmelden

    Stündliche Wetter Dijon

    Heute, 14 November, Donnerstag

    Zeit Temperatur Niederschläge Wind Luftdruck Luftfeuchtigkeit
    00:00 +1°C° 0 mm 3 m/S 725 mmHg 96%
    01:00 +1°C° 0 mm 3 m/S 724 mmHg 94%
    02:00 0°C° 0 mm 4 m/S 723 mmHg 92%
    03:00 +1°C° 0 mm 4 m/S 723 mmHg 90%
    04:00 +1°C° 0.9 mm 4 m/S 723 mmHg 92%
    05:00 +1°C° 0.9 mm 4 m/S 723 mmHg 93%
    06:00 +1°C° 0.9 mm 4 m/S 723 mmHg 94%
    07:00 +1°C° 0.5 mm 4 m/S 723 mmHg 93%
    08:00 +3°C° 0.5 mm 4 m/S 724 mmHg 91%
    09:00 +3°C° 0.5 mm 4 m/S 724 mmHg 90%
    10:00 +4°C° 0 mm 3 m/S 724 mmHg 89%
    11:00 +6°C° 0 mm 2 m/S 724 mmHg 87%
    12:00 +6°C° 0 mm 2 m/S 723 mmHg 86%
    13:00 +7°C° 1.2 mm 1 m/S 723 mmHg 89%
    14:00 +6°C° 1.2 mm 1 m/S 723 mmHg 92%
    15:00 +6°C° 1.2 mm 1 m/S 722 mmHg 96%
    16:00 +5°C° 0.8 mm 2 m/S 722 mmHg 96%
    17:00 +5°C° 0.8 mm 2 m/S 722 mmHg 96%
    18:00 +4°C° 0.8 mm 2 m/S 722 mmHg 97%
    19:00 +4°C° 0.4 mm 2 m/S 722 mmHg 96%
    20:00 +3°C° 0.4 mm 3 m/S 722 mmHg 95%
    21:00 +3°C° 0.4 mm 3 m/S 721 mmHg 94%
    22:00 +3°C° 0.3 mm 3 m/S 721 mmHg 92%
    23:00 +1°C° 0.3 mm 4 m/S 721 mmHg 90%

    Morgen, 15 November, Freitag

    Zeit Temperatur Niederschläge Wind Luftdruck Luftfeuchtigkeit
    00:00 +1°C° 0.3 mm 4 m/S 721 mmHg 88%
    01:00 +2°C° 0.3 mm 3 m/S 721 mmHg 90%
    02:00 +3°C° 0.3 mm 2 m/S 721 mmHg 93%
    03:00 +3°C° 0.3 mm 1 m/S 721 mmHg 95%
    04:00 +3°C° 0.1 mm 1 m/S 722 mmHg 95%
    05:00 +4°C° 0.1 mm 1 m/S 722 mmHg 95%
    06:00 +4°C° 0.1 mm 1 m/S 723 mmHg 95%
    07:00 +2°C° 0.1 mm 3 m/S 723 mmHg 94%
    08:00 +1°C° 0.1 mm 4 m/S 724 mmHg 93%
    09:00 +2°C° 0.1 mm 5 m/S 724 mmHg 92%
    10:00 +3°C° 0 mm 4 m/S 724 mmHg 89%
    11:00 +4°C° 0 mm 4 m/S 725 mmHg 86%
    12:00 +4°C° 0 mm 3 m/S 725 mmHg 82%
    13:00 +4°C° 0 mm 3 m/S 725 mmHg 83%
    14:00 +4°C° 0 mm 3 m/S 725 mmHg 84%
    15:00 +5°C° 0 mm 2 m/S 725 mmHg 84%
    16:00 +4°C° 0 mm 2 m/S 726 mmHg 87%
    17:00 +3°C° 0 mm 2 m/S 726 mmHg 89%
    18:00 +3°C° 0 mm 1 m/S 727 mmHg 92%
    19:00 +3°C° 0 mm 1 m/S 727 mmHg 92%
    20:00 +2°C° 0 mm 1 m/S 727 mmHg 93%
    21:00 +1°C° 0 mm 0 m/S 728 mmHg 93%
    22:00 +2°C° 0 mm 1 m/S 728 mmHg 92%
    23:00 +2°C° 0 mm 1 m/S 728 mmHg 92%

    übermorgen, 16 November, Samstag

    Zeit Temperatur Niederschläge Wind Luftdruck Luftfeuchtigkeit
    00:00 +3°C° 0 mm 1 m/S 728 mmHg 91%
    01:00 +2°C° 0 mm 1 m/S 729 mmHg 91%
    02:00 +1°C° 0 mm 0 m/S 729 mmHg 91%
    03:00 +1°C° 0 mm 0 m/S 729 mmHg 91%
    04:00 +2°C° 0 mm 1 m/S 729 mmHg 91%
    05:00 +2°C° 0 mm 1 m/S 730 mmHg 92%
    06:00 +1°C° 0 mm 1 m/S 730 mmHg 92%
    07:00 +2°C° 0 mm 1 m/S 731 mmHg 89%
    08:00 +3°C° 0 mm 1 m/S 731 mmHg 86%
    09:00 +3°C° 0 mm 2 m/S 732 mmHg 84%
    10:00 +4°C° 0 mm 2 m/S 732 mmHg 80%
    11:00 +5°C° 0 mm 2 m/S 732 mmHg 77%
    12:00 +6°C° 0 mm 2 m/S 733 mmHg 73%
    13:00 +6°C° 0 mm 2 m/S 733 mmHg 76%
    14:00 +6°C° 0 mm 2 m/S 733 mmHg 79%
    15:00 +5°C° 0 mm 2 m/S 733 mmHg 81%
    16:00 +5°C° 0 mm 1 m/S 733 mmHg 85%
    17:00 +4°C° 0 mm 1 m/S 733 mmHg 88%
    18:00 +3°C° 0 mm 1 m/S 734 mmHg 92%
    19:00 +2°C° 0 mm 1 m/S 734 mmHg 92%
    20:00 +2°C° 0 mm 1 m/S 734 mmHg 92%
    21:00 +2°C° 0 mm 1 m/S 734 mmHg 92%
    22:00 +2°C° 0 mm 1 m/S 734 mmHg 92%
    23:00 +2°C° 0 mm 1 m/S 734 mmHg 92%

    17 November, Sonntag

    Zeit Temperatur Niederschläge Wind Luftdruck Luftfeuchtigkeit
    00:00 +1°C° 0 mm 1 m/S 733 mmHg 92%
    01:00 +1°C° 0 mm 1 m/S 733 mmHg 92%
    02:00 -1°C° 0 mm 2 m/S 733 mmHg 92%
    03:00 -1°C° 0 mm 2 m/S 732 mmHg 92%
    04:00 -1°C° 0 mm 2 m/S 732 mmHg 91%
    05:00 -1°C° 0 mm 2 m/S 732 mmHg 89%
    06:00 -1°C° 0 mm 3 m/S 732 mmHg 88%
    07:00 0°C° 0 mm 3 m/S 732 mmHg 84%
    08:00 0°C° 0 mm 4 m/S 732 mmHg 80%
    09:00 +1°C° 0 mm 4 m/S 732 mmHg 76%
    10:00 +2°C° 0 mm 5 m/S 731 mmHg 74%
    11:00 +3°C° 0 mm 5 m/S 731 mmHg 72%
    12:00 +4°C° 0 mm 6 m/S 730 mmHg 70%
    13:00 +5°C° 0.1 mm 5 m/S 730 mmHg 73%
    14:00 +3°C° 0.1 mm 5 m/S 730 mmHg 76%
    15:00 +3°C° 0.1 mm 5 m/S 730 mmHg 79%
    16:00 +2°C° 0.7 mm 5 m/S 730 mmHg 84%
    17:00 +3°C° 0.7 mm 4 m/S 730 mmHg 88%
    18:00 +1°C° 0.7 mm 4 m/S 730 mmHg 93%
    19:00 +1°C° 0.5 mm 4 m/S 730 mmHg 94%
    20:00 +2°C° 0.5 mm 3 m/S 730 mmHg 95%
    21:00 +2°C° 0.5 mm 3 m/S 730 mmHg 97%
    22:00 +2°C° 0.5 mm 3 m/S 730 mmHg 97%
    23:00 +2°C° 0.5 mm 3 m/S 730 mmHg 96%

    18 November, Montag

    Zeit Temperatur Niederschläge Wind Luftdruck Luftfeuchtigkeit
    00:00 +2°C° 0.5 mm 3 m/S 730 mmHg 96%
    01:00 +2°C° 0.2 mm 3 m/S 730 mmHg 96%
    02:00 +2°C° 0.2 mm 3 m/S 730 mmHg 96%
    03:00 +2°C° 0.2 mm 3 m/S 730 mmHg 96%
    04:00 +2°C° 0 mm 3 m/S 731 mmHg 95%
    05:00 +1°C° 0 mm 3 m/S 731 mmHg 95%
    06:00 +1°C° 0 mm 3 m/S 731 mmHg 94%
    07:00 +2°C° 0 mm 3 m/S 731 mmHg 92%
    08:00 +2°C° 0 mm 3 m/S 732 mmHg 89%
    09:00 +2°C° 0 mm 3 m/S 732 mmHg 87%
    10:00 +3°C° 0.1 mm 3 m/S 732 mmHg 89%
    11:00 +3°C° 0.1 mm 4 m/S 732 mmHg 90%
    12:00 +3°C° 0.1 mm 4 m/S 732 mmHg 92%
    13:00 +3°C° 0.3 mm 4 m/S 732 mmHg 92%
    14:00 +3°C° 0.3 mm 4 m/S 732 mmHg 92%
    15:00 +3°C° 0.3 mm 4 m/S 732 mmHg 93%
    16:00 +3°C° 0.1 mm 3 m/S 733 mmHg 94%
    17:00 +3°C° 0.1 mm 3 m/S 733 mmHg 94%
    18:00 +3°C° 0.1 mm 3 m/S 733 mmHg 95%
    19:00 +3°C° 0.1 mm 3 m/S 734 mmHg 95%
    20:00 +3°C° 0.1 mm 3 m/S 734 mmHg 95%
    21:00 +3°C° 0.1 mm 3 m/S 734 mmHg 95%
    22:00 +3°C° 0.1 mm 3 m/S 735 mmHg 95%
    23:00 +3°C° 0.1 mm 3 m/S 735 mmHg 95%

    19 November, Dienstag

    Zeit Temperatur Niederschläge Wind Luftdruck Luftfeuchtigkeit
    00:00 +4°C° 0.1 mm 2 m/S 735 mmHg 95%
    01:00 +4°C° 0.2 mm 2 m/S 735 mmHg 95%
    02:00 +4°C° 0.2 mm 2 m/S 735 mmHg 95%
    03:00 +4°C° 0.2 mm 2 m/S 735 mmHg 96%
    04:00 +4°C° 0.1 mm 2 m/S 735 mmHg 96%
    05:00 +3°C° 0.1 mm 2 m/S 735 mmHg 96%
    06:00 +3°C° 0.1 mm 2 m/S 735 mmHg 96%
    07:00 +3°C° 0 mm 2 m/S 735 mmHg 93%
    08:00 +3°C° 0 mm 3 m/S 735 mmHg 91%
    09:00 +3°C° 0 mm 3 m/S 735 mmHg 88%
    10:00 +4°C° 0 mm 3 m/S 734 mmHg 85%
    11:00 +5°C° 0 mm 3 m/S 734 mmHg 82%
    12:00 +5°C° 0 mm 4 m/S 733 mmHg 79%
    13:00 +5°C° 0 mm 4 m/S 733 mmHg 80%
    14:00 +5°C° 0 mm 4 m/S 732 mmHg 82%
    15:00 +5°C° 0 mm 4 m/S 732 mmHg 83%
    16:00 +4°C° 0 mm 3 m/S 732 mmHg 86%
    17:00 +3°C° 0 mm 3 m/S 732 mmHg 89%
    18:00 +2°C° 0 mm 3 m/S 732 mmHg 92%
    19:00 +3°C° 0.1 mm 3 m/S 731 mmHg 91%
    20:00 +3°C° 0.1 mm 3 m/S 731 mmHg 89%
    21:00 +3°C° 0.1 mm 3 m/S 731 mmHg 88%
    22:00 +3°C° 0.1 mm 3 m/S 731 mmHg 87%
    23:00 +3°C° 0.1 mm 4 m/S 730 mmHg 86%
    Mehr zeigen